THY99 LTAC-LTFJ

Flight info

Callsign THY99
Flight time 0h 42m
Altitude 32000
Route UMRUN UG8 TOKER
Aircraft B738/M-SDE2E3FGHIRWXY/LB1

Departure

Time 2026-05-04 14:16
Airport Esenboğa International Airport (LTAC)

Arrival

Time 2026-05-04 14:58
Airport Istanbul Sabiha Gökçen International Airport (LTFJ)
Time Latitude Longitude Altitude Speed Heading
2026-05-04 14:02 40.11891 32.99232 3129 ft 0 kts 341°
2026-05-04 14:07 40.11888 32.99233 3129 ft 1 kts 334°
2026-05-04 14:08 40.11875 32.99242 3129 ft 2 kts 342°
2026-05-04 14:08 40.11861 32.99248 3129 ft 2 kts 341°
2026-05-04 14:08 40.11851 32.99252 3129 ft 1 kts 340°
2026-05-04 14:08 40.11839 32.99262 3129 ft 2 kts 307°
2026-05-04 14:09 40.11834 32.99294 3130 ft 0 kts 251°
2026-05-04 14:09 40.11836 32.99303 3130 ft 0 kts 247°
2026-05-04 14:10 40.11837 32.99303 3130 ft 0 kts 247°
2026-05-04 14:12 40.11836 32.99302 3130 ft 1 kts 247°
2026-05-04 14:12 40.11784 32.99093 3126 ft 21 kts 284°
2026-05-04 14:13 40.11760 32.98959 3123 ft 17 kts 214°
2026-05-04 14:13 40.11686 32.98852 3121 ft 16 kts 275°
2026-05-04 14:13 40.11711 32.98795 3120 ft 0 kts 308°
2026-05-04 14:14 40.11726 32.98769 3120 ft 12 kts 308°
2026-05-04 14:14 40.11819 32.98605 3116 ft 30 kts 305°
2026-05-04 14:15 40.12228 32.98793 3117 ft 77 kts 35°
2026-05-04 14:15 40.13712 33.00223 3317 ft 167 kts 34°
2026-05-04 14:16 40.15562 33.02102 4542 ft 177 kts 33°
2026-05-04 14:16 40.16542 33.03048 5164 ft 178 kts 33°
2026-05-04 14:17 40.18603 33.05283 5945 ft 209 kts 37°
2026-05-04 14:17 40.19802 33.06484 6394 ft 221 kts 27°
2026-05-04 14:17 40.22913 33.06513 7244 ft 247 kts 333°
2026-05-04 14:18 40.24353 33.05202 7743 ft 262 kts 317°
2026-05-04 14:18 40.26689 33.01363 9072 ft 279 kts 299°
2026-05-04 14:19 40.27255 32.96307 10491 ft 295 kts 270°
2026-05-04 14:19 40.27199 32.93576 10934 ft 311 kts 270°
2026-05-04 14:19 40.27190 32.90693 11371 ft 327 kts 272°
2026-05-04 14:19 40.27241 32.87641 11807 ft 344 kts 273°
2026-05-04 14:20 40.27326 32.84450 12330 ft 357 kts 273°
2026-05-04 14:20 40.27422 32.81197 13098 ft 361 kts 273°
2026-05-04 14:20 40.27517 32.77932 13837 ft 367 kts 273°
2026-05-04 14:21 40.27706 32.71188 15459 ft 376 kts 274°
2026-05-04 14:21 40.27800 32.67746 16241 ft 381 kts 274°
2026-05-04 14:21 40.27895 32.64284 16976 ft 386 kts 274°
2026-05-04 14:21 40.27989 32.60776 17736 ft 389 kts 275°
2026-05-04 14:22 40.28082 32.57256 18431 ft 394 kts 275°
2026-05-04 14:22 40.28177 32.53663 19164 ft 398 kts 275°
2026-05-04 14:22 40.28270 32.50046 19856 ft 402 kts 276°
2026-05-04 14:22 40.28362 32.46390 20506 ft 407 kts 276°
2026-05-04 14:23 40.28548 32.38927 21750 ft 416 kts 277°
2026-05-04 14:23 40.28640 32.35136 22350 ft 420 kts 277°
2026-05-04 14:23 40.28731 32.31304 22872 ft 425 kts 277°
2026-05-04 14:24 40.28822 32.27440 23434 ft 430 kts 277°
2026-05-04 14:24 40.28910 32.23544 24020 ft 433 kts 277°
2026-05-04 14:24 40.28998 32.19603 24421 ft 439 kts 277°
2026-05-04 14:24 40.29089 32.15554 24816 ft 446 kts 277°
2026-05-04 14:25 40.29179 32.11462 25337 ft 449 kts 277°
2026-05-04 14:25 40.29353 32.03263 26398 ft 453 kts 278°
2026-05-04 14:25 40.29435 31.99194 27073 ft 451 kts 277°
2026-05-04 14:26 40.29516 31.95078 27644 ft 451 kts 277°
2026-05-04 14:26 40.29600 31.90969 27814 ft 458 kts 278°
2026-05-04 14:26 40.29689 31.86759 27830 ft 469 kts 277°
2026-05-04 14:26 40.29781 31.82448 27828 ft 481 kts 277°
2026-05-04 14:27 40.29872 31.78120 27829 ft 492 kts 277°
2026-05-04 14:27 40.29962 31.73653 27828 ft 500 kts 277°
2026-05-04 14:27 40.30045 31.69091 27833 ft 498 kts 277°
2026-05-04 14:27 40.30122 31.64556 27834 ft 500 kts 277°
2026-05-04 14:28 40.30197 31.60041 27839 ft 499 kts 277°
2026-05-04 14:28 40.30269 31.55510 27843 ft 498 kts 277°
2026-05-04 14:28 40.30341 31.50958 27847 ft 498 kts 277°
2026-05-04 14:28 40.30412 31.46463 27857 ft 500 kts 277°
2026-05-04 14:29 40.30553 31.37385 27865 ft 499 kts 277°
2026-05-04 14:29 40.30690 31.28316 27879 ft 500 kts 277°
2026-05-04 14:30 40.30757 31.23744 27884 ft 501 kts 277°
2026-05-04 14:30 40.30823 31.19188 27898 ft 501 kts 277°
2026-05-04 14:30 40.30945 31.10116 27912 ft 499 kts 277°
2026-05-04 14:31 40.31006 31.05567 27913 ft 502 kts 277°
2026-05-04 14:31 40.31119 30.96454 27914 ft 500 kts 277°
2026-05-04 14:32 40.31224 30.87415 27919 ft 500 kts 277°
2026-05-04 14:32 40.31274 30.82842 27921 ft 500 kts 277°
2026-05-04 14:32 40.31343 30.78325 27925 ft 499 kts 278°
2026-05-04 14:32 40.31575 30.73789 27930 ft 495 kts 281°
2026-05-04 14:33 40.31963 30.69376 27932 ft 494 kts 283°
2026-05-04 14:33 40.32450 30.64905 27931 ft 492 kts 284°
2026-05-04 14:33 40.32971 30.60480 27925 ft 495 kts 285°
2026-05-04 14:33 40.33506 30.56021 27924 ft 492 kts 285°
2026-05-04 14:34 40.34024 30.51651 27929 ft 490 kts 284°
2026-05-04 14:34 40.34515 30.47294 27765 ft 480 kts 284°
2026-05-04 14:34 40.34821 30.42953 27330 ft 473 kts 278°
2026-05-04 14:34 40.34882 30.38732 27091 ft 462 kts 275°
2026-05-04 14:35 40.34804 30.34529 26906 ft 450 kts 273°
2026-05-04 14:35 40.34669 30.30538 26691 ft 438 kts 272°
2026-05-04 14:35 40.34515 30.26580 26263 ft 431 kts 272°
2026-05-04 14:36 40.34223 30.18785 25196 ft 424 kts 272°
2026-05-04 14:36 40.34090 30.14989 24732 ft 419 kts 272°
2026-05-04 14:36 40.33963 30.11216 24175 ft 416 kts 272°
2026-05-04 14:36 40.33841 30.07460 23696 ft 412 kts 272°
2026-05-04 14:37 40.33676 30.03741 23411 ft 403 kts 269°
2026-05-04 14:37 40.33272 30.00194 23244 ft 395 kts 262°
2026-05-04 14:37 40.32418 29.96791 23117 ft 387 kts 252°
2026-05-04 14:37 40.31334 29.93657 22931 ft 379 kts 248°
2026-05-04 14:38 40.30155 29.90588 22473 ft 378 kts 246°
2026-05-04 14:38 40.28948 29.87552 22052 ft 376 kts 246°
2026-05-04 14:38 40.27742 29.84524 21613 ft 374 kts 246°
2026-05-04 14:38 40.26586 29.81497 21236 ft 369 kts 249°
2026-05-04 14:39 40.25707 29.78381 20805 ft 361 kts 262°
2026-05-04 14:39 40.25468 29.75189 20407 ft 349 kts 276°
2026-05-04 14:39 40.25553 29.72072 19958 ft 346 kts 279°
2026-05-04 14:40 40.25899 29.65857 19191 ft 339 kts 280°
2026-05-04 14:40 40.26064 29.62830 18781 ft 337 kts 280°
2026-05-04 14:40 40.26222 29.59766 18373 ft 334 kts 281°
2026-05-04 14:40 40.26591 29.56819 18015 ft 324 kts 292°
2026-05-04 14:41 40.27496 29.54211 17578 ft 310 kts 313°
2026-05-04 14:41 40.28994 29.52304 17243 ft 297 kts 329°
2026-05-04 14:41 40.32370 29.49122 16470 ft 292 kts 329°
2026-05-04 14:42 40.35605 29.46001 15743 ft 287 kts 329°
2026-05-04 14:42 40.37201 29.44448 15382 ft 284 kts 329°
2026-05-04 14:42 40.38753 29.42877 14985 ft 285 kts 324°
2026-05-04 14:43 40.40076 29.40855 14320 ft 303 kts 306°
2026-05-04 14:43 40.40702 29.38152 13591 ft 328 kts 283°
2026-05-04 14:43 40.40739 29.35099 12859 ft 341 kts 275°
2026-05-04 14:43 40.40624 29.31978 12116 ft 347 kts 274°
2026-05-04 14:44 40.40506 29.28799 11372 ft 351 kts 274°
2026-05-04 14:44 40.40422 29.25621 10625 ft 353 kts 275°
2026-05-04 14:44 40.40490 29.22388 9854 ft 349 kts 283°
2026-05-04 14:44 40.41111 29.19401 9091 ft 338 kts 300°
2026-05-04 14:45 40.42223 29.16762 8363 ft 333 kts 307°
2026-05-04 14:45 40.43472 29.14287 8032 ft 310 kts 309°
2026-05-04 14:45 40.44517 29.11963 7987 ft 288 kts 298°
2026-05-04 14:45 40.44844 29.09455 7990 ft 279 kts 275°
2026-05-04 14:46 40.44606 29.06937 7994 ft 278 kts 268°
2026-05-04 14:46 40.44286 29.04433 7987 ft 277 kts 269°
2026-05-04 14:46 40.44015 29.01926 7992 ft 276 kts 270°
2026-05-04 14:46 40.43837 28.99434 7990 ft 272 kts 276°
2026-05-04 14:47 40.43981 28.97002 7989 ft 266 kts 287°
2026-05-04 14:47 40.44356 28.94654 7989 ft 262 kts 290°
2026-05-04 14:47 40.44776 28.92344 7995 ft 263 kts 290°
2026-05-04 14:47 40.45188 28.89985 7998 ft 264 kts 290°
2026-05-04 14:48 40.45571 28.87631 7997 ft 263 kts 290°
2026-05-04 14:48 40.46128 28.85376 7992 ft 257 kts 303°
2026-05-04 14:48 40.47298 28.83706 7990 ft 245 kts 333°
2026-05-04 14:48 40.48896 28.83063 7808 ft 240 kts 355°
2026-05-04 14:49 40.50533 28.83253 7641 ft 233 kts 11°
2026-05-04 14:49 40.52050 28.83920 7489 ft 233 kts 20°
2026-05-04 14:49 40.53502 28.84900 7336 ft 236 kts 25°
2026-05-04 14:49 40.54934 28.85953 7190 ft 235 kts 25°
2026-05-04 14:50 40.56383 28.86999 7038 ft 235 kts 24°
2026-05-04 14:50 40.57826 28.88014 6890 ft 236 kts 24°
2026-05-04 14:50 40.59287 28.89024 6729 ft 236 kts 24°
2026-05-04 14:50 40.60736 28.90031 6482 ft 236 kts 24°
2026-05-04 14:51 40.62179 28.91036 6230 ft 234 kts 24°
2026-05-04 14:51 40.63620 28.92030 5968 ft 234 kts 24°
2026-05-04 14:51 40.65051 28.93028 5717 ft 234 kts 24°
2026-05-04 14:51 40.66495 28.94042 5463 ft 234 kts 24°
2026-05-04 14:52 40.67939 28.95058 5212 ft 233 kts 24°
2026-05-04 14:52 40.69360 28.96047 4968 ft 233 kts 24°
2026-05-04 14:52 40.70804 28.97036 4716 ft 232 kts 24°
2026-05-04 14:52 40.72234 28.98035 4459 ft 232 kts 25°
2026-05-04 14:53 40.73648 28.99036 4206 ft 232 kts 25°
2026-05-04 14:53 40.75085 29.00052 4015 ft 231 kts 25°
2026-05-04 14:53 40.76486 29.01070 3998 ft 234 kts 28°
2026-05-04 14:53 40.77727 29.02499 3993 ft 240 kts 47°
2026-05-04 14:54 40.78634 29.04377 3998 ft 244 kts 55°
2026-05-04 14:54 40.79462 29.06305 3993 ft 243 kts 54°
2026-05-04 14:54 40.80327 29.08232 3982 ft 242 kts 54°
2026-05-04 14:54 40.81089 29.10190 3724 ft 241 kts 60°
2026-05-04 14:55 40.81785 29.12200 3370 ft 240 kts 59°
2026-05-04 14:55 40.82479 29.14129 3058 ft 232 kts 58°
2026-05-04 14:55 40.83179 29.16011 2738 ft 222 kts 58°
2026-05-04 14:55 40.83854 29.17815 2426 ft 217 kts 58°
2026-05-04 14:56 40.84514 29.19589 2131 ft 211 kts 59°
2026-05-04 14:56 40.85135 29.21266 1848 ft 197 kts 58°
2026-05-04 14:56 40.85710 29.22820 1591 ft 179 kts 59°
2026-05-04 14:56 40.86233 29.24239 1365 ft 163 kts 57°
2026-05-04 14:57 40.86703 29.25499 1212 ft 147 kts 57°
2026-05-04 14:57 40.87171 29.26693 1015 ft 144 kts 58°
2026-05-04 14:57 40.87590 29.27832 828 ft 135 kts 61°
2026-05-04 14:57 40.88000 29.28954 660 ft 136 kts 62°
2026-05-04 14:58 40.88417 29.30099 439 ft 139 kts 59°
2026-05-04 14:58 40.88844 29.31242 322 ft 134 kts 61°
2026-05-04 14:58 40.89176 29.32143 321 ft 77 kts 64°
2026-05-04 14:58 40.89343 29.32591 321 ft 45 kts 61°
2026-05-04 14:59 40.89540 29.32868 320 ft 35 kts 31°
2026-05-04 14:59 40.89633 29.32810 320 ft 20 kts 250°
2026-05-04 14:59 40.89506 29.32473 320 ft 19 kts 244°
2026-05-04 15:00 40.89509 29.32373 320 ft 10 kts 311°
2026-05-04 15:00 40.89574 29.32349 320 ft 9 kts 356°
2026-05-04 15:00 40.89639 29.32341 320 ft 9 kts 341°
2026-05-04 15:01 40.89785 29.32252 320 ft 13 kts 334°
2026-05-04 15:01 40.89880 29.32193 320 ft 16 kts 335°
2026-05-04 15:01 40.89993 29.32127 320 ft 18 kts 336°
2026-05-04 15:01 40.90107 29.32103 320 ft 17 kts 41°
2026-05-04 15:02 40.90167 29.32249 320 ft 19 kts 65°
2026-05-04 15:02 40.90229 29.32419 320 ft 21 kts 64°
2026-05-04 15:02 40.90295 29.32559 320 ft 13 kts 29°
2026-05-04 15:02 40.90346 29.32566 320 ft 0 kts 339°
2026-05-04 15:03 40.90347 29.32566 320 ft 0 kts 339°
2026-05-04 15:03 40.90371 29.32553 320 ft 11 kts 338°
2026-05-04 15:03 40.90498 29.32475 320 ft 26 kts 335°
2026-05-04 15:03 40.90625 29.32342 320 ft 22 kts 320°
2026-05-04 15:04 40.90755 29.32231 320 ft 21 kts 327°
2026-05-04 15:04 40.90826 29.32181 320 ft 0 kts 333°